Погода в Парфине

Россия / Новгородская область     57°57′46″N   31°38′45″E
темп.,
°C
ветер,
м/с
пор.,
м/с
влажн.,
%
обл.,
%
осадки,
мм/ч
давл.,
гПа
погр.,
м
28 июля, ср
ср2800:00+18ююв2580100 0.0 1015102
03:00+16ююв2688100 0.0 1014128
06:00+17ююв259285 0.0 1013139
09:00+22ю246598 0.0 1012481
12:00+27ю2449100 0.0 10101516
15:00+21з2491100 2.0 1010201
18:00+21ююв2591100 1.1 1009486
21:00+19ююв249798 1.9 1008104
29 июля, чт
чт2900:00+17ю2699100 6.0 1007142
03:00+16ю239969 6.2 100666
06:00+17зюз2498100 0.1 1006114
09:00+20зюз2386100 0.2 1005304
12:00+23юз3570100 1.3 1005748
15:00+25ююз576367 2.6 10041204
18:00+24з37754 1.2 10031004
21:00+18юз23920 2.2 100351
30 июля, пт
пт3000:00+16ююз249436 0.0 100463
03:00+16юз27946 0.0 1003153
06:00+15юз249512 0.0 100492
09:00+20зюз47698 0.0 1004705
12:00+23зюз68415 0.1 10042230
15:00+21зюз4848100 0.1 10041164
18:00+20юз385784 0.0 1003853
21:00+18ю3106715 0.0 1002408
31 июля, сб
сб3100:00+17ююз4126295 0.0 1001437
03:00+15ююз4136981 0.0 1000659
06:00+16юз5126990 0.1 9991040
09:00+18юз5116883 0.2 10001169
12:00+23з61048100 0.1 10012068
15:00+24зюз4944100 0.1 10022252
18:00+22зюз5972100 0.4 10031148
21:00+17ю2493100 1.5 100367
1 августа, вс
вс100:00+16ю2393100 0.1 100353
03:00+15ю2493100 0.1 100378
06:00+15юз31090100 0.2 1002324
09:00+16ю389990 5.7 1002330
12:00+22юз475840 0.2 10031603
15:00+22юз495696 0.2 10031844
18:00+23зюз5105455 0.3 10042003
21:00+18юз31174100 0.3 1005415